Location: ??
(35.5653°N, 139.6194°E)
Time: 04:48:14
(UTC+00:00)

Meteor 2-3 Rocket - Pass Details

Date: 20 November 2019
Orbit: 843 x 884 km, 81.2° (Epoch: 14 December)

Event Time Altitude Azimuth Distance (km) Brightness Sun altitude
Rises 19:54:52 0° 180° (S) 3,443 7.0 -17.7°
Reaches altitude 10° 19:57:18 10° 177° (S) 2,514 6.3 -17.2°
Maximum altitude 20:02:59 69° 95° (E) 939 4.1 -16.1°
Drops below altitude 10° 20:08:44 10° 14° (NNE) 2,548 6.2 -15.0°
Sets 20:11:12 0° 12° (NNE) 3,492 6.9 -14.5°
